THOR AGENA B DEB, 511

Orbit data source: Space-Track

THOR AGENA B DEB, 511 is space debris in LEO originally from a launch on Sat, 29 Sep 1962 UTC launched from the Air Force Western Test Range (AFWTR). Debris objects in space refer to the collection of defunct objects orbiting the Earth. Examples of debris include non-operational satellites, rocket bodies, and fragments generated from explosions, collisions, or faulty payload assembly.

Loading next visibility...
Identifier
511, 1962-049D
Orbit
LEO
Country
Flag of USUS
Related business
Manufacturer
Unknown
Mission
Spacecraft
Bus & Motor
Unknown
Mass
Unknown
Launch date (UTC)
1962-09-29 (63 years ago)
Launch vehicle
Unknown
Launch site
Air Force Western Test Range (AFWTR)
Object type
Payload
Rocket body
Debris
Shape & HBR
Unknown shape, 0.1 m
Radar Cross Section
Small (<0.1 m²)

Expand to show TLE details & history
Last TLE update: 21 hours ago

TLE from 21 hours ago
0 THOR AGENA B DEB
1 00511U 62049D   25342.15915784  .00000113  00000-0  12118-3 0  9995
2 00511  80.4289  21.3622 0032533 108.0635 308.9208 13.68539378153456
Epoch: 2025-12-08T03:49Z
TLE epoch observation values (Epoch: 2025-12-08T03:49:11.237Z)
Latitude
55.59707°
Longitude
-98.91752°
Altitude
998.932 km
Speed
7.365 km/s
True Right ascension
02h 22m 09s
True Declination
55° 26' 31"
Sunlit
Object was in full shadow at epoch
Visualization orbit readout
Latitude
Unknown
Longitude
Unknown
Altitude
Unknown
Speed
Unknown
Apparent Right ascension
Unknown
Apparent Declination
Unknown
Sunlit
N/A
Visualization observer readout
Local Sidereal Time
22:45:28
Azimuth
Unknown
Elevation
Unknown
Doppler factor
Unknown
Orbital elements
Apogee altitude
1,026.1 km
Perigee altitude
978.079 km
Semi-major axis
7,380.226 km
Eccentricity
0.00325
Inclination
80.4289°
RAAN
21.3622°
Arg. of periapsis
108.0635°
True anomaly
308.63001°
Mean anomaly
308.9208°
Eccentric anomaly
308.77548°
Mean motion
3.42325 °/min
Orbital period
105.16 mins
BSTAR
0.00012118
Loading maneuver chart data...
Computing Atmospheric mass density...
Loading historical data...
Loading historical data...
Loading historical data...
Loading historical data...
Loading historical data...
Loading historical data...
Loading historical data...
Other satellites on launch #49 in the year 1962 (1962-09-29 UTC)

Documentation

Showing up to 5 results
|